This is the latest recevied weather packets stored in our database for station/object KG5WBN. If no packets are shown the sender has not sent any weather packets the latest 10 day(s).
| Time | Temp. | Humidity | Pressure | Rain* | Wind** | Luminosity | Snow |
|---|---|---|---|---|---|---|---|
| 1787939062 | 32.22° C | 50% | 1015.9 hPa | 0 mm | - | 390 W/m² | - |
| 1787938761 | 32.78° C | 44% | 1015.9 hPa | 0 mm | - | 385 W/m² | - |
| 1787938457 | 32.22° C | 44% | 1015.9 hPa | 0 mm | - | 362 W/m² | - |
| 1787938152 | 32.22° C | 44% | 1015.9 hPa | 0 mm | - | 352 W/m² | - |
| 1787937847 | 32.22° C | 50% | 1016.3 hPa | 0 mm | - | 350 W/m² | - |
| 1787937543 | 31.67° C | 50% | 1015.9 hPa | 0 mm | - | 188 W/m² | - |
| 1787937239 | 32.22° C | 50% | 1016.3 hPa | 0 mm | - | 350 W/m² | - |
| 1787936934 | 32.22° C | 44% | 1015.9 hPa | 0 mm | - | 110 W/m² | - |
| 1787936633 | 32.22° C | 44% | 1016.3 hPa | 0 mm | - | 338 W/m² | - |
| 1787936332 | 32.22° C | 50% | 1016.3 hPa | 0 mm | - | 333 W/m² | - |
| 1787936028 | 32.22° C | 50% | 1016.3 hPa | 0 mm | - | 326 W/m² | - |
| 1787935724 | 31.67° C | 50% | 1015.9 hPa | 0 mm | - | 322 W/m² | - |
| 1787935420 | 31.67° C | 51% | 1016.3 hPa | 0 mm | - | 319 W/m² | - |
| 1787935116 | 32.22° C | 50% | 1016.3 hPa | 0 mm | - | 316 W/m² | - |
| 1787934811 | 31.67° C | 50% | 1016.3 hPa | 0 mm | - | 313 W/m² | - |
| 1787934510 | 32.22° C | 48% | 1016.3 hPa | 0 mm | - | 310 W/m² | - |
| 1787934205 | 32.22° C | 50% | 1016.3 hPa | 0 mm | - | 260 W/m² | - |
| 1787933904 | 32.22° C | 50% | 1016.3 hPa | 0 mm | - | 303 W/m² | - |
| 1787933604 | 31.67° C | 50% | 1016.3 hPa | 0 mm | - | 300 W/m² | - |
| 1787933299 | 31.11° C | 50% | 1016.3 hPa | 0 mm | - | 295 W/m² | - |
| 1787932998 | 31.11° C | 51% | 1016.3 hPa | 0 mm | - | 294 W/m² | - |
| 1787932697 | 31.11° C | 51% | 1016.3 hPa | 0 mm | - | 292 W/m² | - |
| 1787932391 | 31.11° C | 50% | 1015.9 hPa | 0 mm | - | 290 W/m² | - |
| 1787932086 | 31.67° C | 50% | 1015.9 hPa | 0 mm | - | 285 W/m² | - |
| 1787931785 | 31.67° C | 50% | 1016.3 hPa | 0 mm | - | 276 W/m² | - |
* Rain latest hour (hover to see other rain measurements)
** Current wind speed in m/s (hover to see current wind gust speed)